Wind_Speed
22 21 21 20 22 22 22 22 21 19 17 18 17 17 16 15 14 13 12 12 12 11 11 11 11 11 10 10 10 9 8 8 8 8 8 9 10 10 11 11 11 11 11 11 12 12 12 12 12
21 21 21 22 23 23 24 23 21 20 19 18 17 17 16 15 14 14 13 13 12 11 10 11 10 10 10 9 9 9 8 8 8 8 8 8 9 10 10 10 11 11 11 11 12 12 12 12 11
20 21 22 22 22 23 24 23 21 21 20 19 17 17 16 15 15 14 14 14 13 11 11 10 10 9 9 9 9 9 8 7 7 7 7 8 8 9 9 10 10 11 11 11 12 12 12 11 11
20 21 22 22 22 24 24 23 22 21 20 19 18 17 17 16 15 15 15 14 13 12 11 11 11 9 9 9 8 9 9 8 7 7 7 8 8 9 9 10 10 10 11 11 11 11 11 11 11
18 20 21 22 23 23 23 23 22 21 20 20 20 19 17 17 15 14 14 14 14 13 11 10 10 9 9 8 9 9 9 8 7 8 8 8 8 9 9 9 9 10 11 11 11 11 11 11 11
17 18 19 21 22 23 23 23 22 21 21 21 20 19 19 17 16 15 15 14 14 13 12 10 10 9 8 8 8 8 8 8 8 7 8 8 8 8 8 8 8 9 10 10 10 10 10 10 10
17 16 18 20 21 22 22 22 21 22 22 21 21 20 19 19 17 16 16 15 14 12 11 10 10 9 8 8 8 7 7 8 8 8 8 8 7 8 7 7 8 8 9 9 9 9 9 9 9
14 15 16 19 20 21 22 22 21 21 22 22 22 21 20 20 19 17 16 15 14 13 12 11 10 10 10 9 8 8 8 8 8 8 7 7 7 7 6 7 7 7 8 8 8 8 9 9 9
13 12 14 17 18 20 21 21 21 22 22 22 22 22 20 20 19 18 17 16 15 14 12 11 10 10 10 10 9 8 8 8 8 7 7 7 7 6 6 7 7 7 7 7 7 8 8 8 8
12 11 13 16 17 20 21 21 22 22 22 22 22 21 21 20 19 19 18 17 16 14 13 11 10 10 10 9 9 8 8 8 7 7 7 7 7 6 6 6 6 6 6 6 7 7 7 7 7
11 10 13 15 17 19 20 20 21 21 21 22 21 21 21 21 20 19 18 17 16 15 13 12 12 11 10 10 9 9 8 8 8 8 8 7 7 6 6 6 5 6 6 6 6 6 6 6 6
8 9 11 14 16 18 19 19 20 20 20 21 21 20 21 21 20 20 19 18 16 15 14 12 13 12 10 10 10 9 7 7 7 7 7 7 6 6 6 6 5 6 6 5 5 5 5 5 5
8 7 10 12 15 16 17 18 18 19 20 20 20 20 21 21 21 20 20 19 18 16 15 14 14 13 12 11 11 9 7 7 7 6 6 6 6 5 5 5 5 5 5 4 4 4 4 4 3
7 6 8 11 13 15 15 16 17 18 19 20 20 20 21 22 21 21 20 20 18 17 16 15 14 13 13 11 11 10 8 7 7 6 6 6 6 5 5 5 5 4 4 3 3 3 2 2 2
7 6 5 8 10 12 13 14 15 17 19 19 19 19 20 20 21 20 20 20 19 17 16 16 15 14 13 12 11 10 8 8 7 7 6 5 5 5 4 3 3 4 3 3 2 2 2 2 2
6 5 3 5 8 10 11 13 14 15 17 18 19 19 20 20 19 19 20 19 18 18 17 16 16 15 13 12 11 10 8 8 7 6 6 5 5 4 3 3 3 3 2 2 2 2 2 2 2
6 4 1 2 4 7 10 11 12 14 15 17 18 18 19 19 19 18 19 18 18 17 17 17 17 16 14 13 12 11 9 8 7 6 6 5 4 3 3 2 2 2 1 1 2 2 3 3 3
7 5 4 2 3 5 8 10 11 12 13 14 16 17 18 19 18 18 18 17 17 17 17 16 16 15 14 13 12 11 10 8 7 6 5 4 3 3 2 2 1 1 2 2 2 2 3 4 4
9 7 5 3 3 4 6 8 9 10 11 13 14 16 17 18 17 17 17 17 16 16 16 16 15 15 14 13 12 11 10 9 7 6 5 4 3 2 2 1 1 1 2 2 2 2 3 4 5
13 11 8 6 5 4 7 9 9 11 9 11 12 14 15 15 16 15 15 15 15 15 15 15 15 15 14 13 11 9 8 8 7 6 5 5 3 2 1 1 1 1 1 2 3 3 4 5 5
17 14 12 9 6 5 6 8 8 10 9 9 11 12 12 13 14 14 14 15 14 14 14 14 13 13 13 12 11 10 8 7 6 6 6 5 4 3 2 2 2 2 2 3 4 5 5 5 6
18 16 14 12 9 8 7 8 7 8 8 9 10 10 11 12 13 13 13 14 14 14 14 13 12 12 12 12 11 10 9 8 7 6 6 5 4 4 3 4 3 3 4 4 5 5 6 6 7
20 19 17 15 14 11 10 9 7 8 8 10 10 11 10 11 11 12 12 12 12 13 12 12 11 11 11 11 10 10 9 8 8 7 6 6 5 5 4 4 5 5 5 5 6 6 7 7 8
21 21 21 19 17 15 12 11 9 9 9 9 11 10 9 9 9 10 10 11 11 11 11 11 11 11 11 10 10 9 9 8 8 8 7 7 7 6 6 5 5 5 6 6 7 7 8 8 9
23 23 23 22 20 17 13 13 10 9 9 9 10 11 10 9 10 10 11 11 11 11 11 11 10 10 10 10 10 10 9 8 8 8 8 8 8 7 7 6 6 6 7 8 8 9 9 8 8
25 24 24 22 21 18 16 15 12 10 10 10 11 11 11 11 11 11 11 11 10 11 11 10 10 10 10 10 10 11 10 9 10 9 8 8 8 7 8 7 6 6 7 8 9 10 9 9 9
25 23 22 21 21 20 19 16 13 11 11 11 11 11 11 12 13 12 11 10 10 11 11 10 10 11 10 10 10 10 10 10 10 9 8 8 8 8 8 8 7 7 7 8 8 9 10 10 10
25 24 23 22 21 21 19 17 13 11 12 12 11 11 12 12 12 12 11 11 11 11 12 12 12 11 11 11 10 10 10 10 10 10 10 9 9 9 9 9 8 7 7 8 9 9 10 10 11
26 26 25 24 23 22 22 19 14 12 12 11 11 11 13 13 13 12 12 12 12 12 12 13 13 12 12 11 11 11 11 12 12 11 10 10 10 10 10 9 8 8 9 9 10 10 11 11 12
26 26 26 25 24 24 23 21 16 15 14 13 12 12 14 14 14 13 13 13 13 13 14 14 13 12 11 12 13 13 13 13 13 13 12 11 11 11 11 10 9 9 10 11 11 11 12 13 13
Wind_Direction
64 60 57 55 53 53 54 54 53 53 48 46 44 44 45 46 47 50 50 51 61 67 67 70 73 72 72 72 72 75 81 84 88 90 93 97 101 105 105 104 103 103 102 100 98 98 97 98 97
63 58 54 52 52 51 52 53 51 51 50 48 45 43 45 46 47 49 47 50 61 67 68 72 71 71 72 72 74 78 80 83 88 91 94 98 101 104 107 105 103 104 104 102 99 97 96 96 95
63 57 53 50 49 50 52 52 50 49 49 49 46 44 44 46 47 47 48 53 61 66 69 71 67 67 69 69 76 81 78 78 83 89 94 99 102 106 107 109 105 104 103 101 99 97 96 94 94
63 55 50 48 49 50 51 50 47 47 48 48 45 44 45 46 47 49 51 57 62 65 69 68 67 65 68 68 75 79 76 78 80 86 89 94 102 104 106 110 108 105 105 101 98 97 95 93 93
59 53 46 47 49 49 51 51 47 45 46 46 45 44 45 47 47 49 53 57 61 63 65 67 67 64 65 69 74 78 77 79 83 92 92 93 98 100 105 108 107 105 105 102 100 97 96 93 92
57 49 47 47 47 49 50 50 47 44 44 45 45 44 47 49 49 50 51 54 58 60 62 65 64 63 66 72 76 79 80 85 89 96 97 99 100 103 105 103 104 103 103 103 101 99 98 96 93
53 48 45 46 47 50 53 53 49 44 44 44 44 43 47 50 50 50 51 52 55 55 58 62 63 64 68 78 80 79 84 89 92 96 100 103 102 104 105 104 106 103 103 102 101 100 98 97 95
56 45 43 45 44 50 53 52 50 47 43 43 42 42 45 49 50 50 49 52 53 52 56 59 62 66 71 78 80 82 87 93 96 99 102 105 106 109 108 107 108 105 105 103 102 102 99 97 96
55 44 46 45 44 48 52 50 49 48 43 42 42 42 44 47 50 50 50 51 51 51 54 58 66 69 71 74 77 82 87 93 98 104 108 107 109 113 116 114 114 110 107 104 101 100 100 99 97
52 47 46 43 45 48 50 48 47 45 42 42 43 43 44 47 49 51 51 51 51 52 56 59 69 70 71 71 75 82 88 91 93 102 110 110 110 114 119 119 115 116 115 110 107 103 100 100 99
55 46 41 40 42 46 46 46 46 45 42 41 41 43 45 46 47 51 53 52 50 54 58 62 67 70 70 70 77 82 87 90 93 98 105 109 111 116 123 123 122 123 122 118 112 109 106 103 100
63 47 37 38 36 39 42 44 43 42 41 41 42 43 45 46 47 48 50 52 53 53 54 63 64 69 71 70 76 82 87 91 98 99 98 102 107 109 116 121 122 125 125 125 121 114 113 107 103
88 55 38 38 30 34 36 40 42 42 42 42 42 42 44 46 46 47 49 50 53 53 54 57 59 63 66 68 72 75 83 91 98 103 102 104 105 105 109 112 118 123 126 124 123 115 113 107 106
103 72 52 44 36 36 35 39 39 41 43 42 42 43 43 44 44 45 47 48 51 51 50 54 56 58 61 64 68 71 81 89 96 97 97 99 102 101 108 114 120 125 128 127 133 132 119 126 134
118 90 60 44 35 34 34 35 38 38 41 41 40 41 42 42 42 43 45 47 49 50 50 53 54 55 55 59 66 71 79 88 94 94 97 98 96 93 99 116 131 134 136 147 167 179 181 184 183
138 110 71 40 26 24 27 29 34 35 37 37 38 37 39 39 40 41 43 45 46 47 49 51 50 51 53 58 63 67 71 80 87 90 92 95 102 99 99 121 146 153 159 183 197 201 209 225 236
168 151 144 6 355 3 10 13 24 36 37 36 36 35 35 36 36 37 39 41 42 42 44 47 47 48 52 56 58 62 67 76 80 79 78 85 93 99 98 115 150 169 188 211 235 230 229 241 253
185 191 216 271 311 335 348 356 10 24 32 34 33 30 30 31 34 35 36 38 39 41 42 44 45 45 49 53 56 59 63 70 74 70 68 73 81 94 98 92 139 227 233 227 243 246 249 254 258
191 197 208 246 272 298 322 338 353 9 18 26 28 26 26 28 31 32 32 34 35 39 40 41 42 42 43 46 51 55 58 60 61 61 58 58 60 77 80 48 10 273 255 244 246 247 247 258 268
194 199 213 238 253 284 311 324 338 349 7 15 21 23 24 24 28 28 29 30 30 34 35 37 39 39 39 40 43 47 49 49 47 45 41 44 44 47 46 3 357 329 290 266 267 269 261 265 271
197 204 218 229 239 255 294 311 323 340 357 6 11 13 16 20 24 25 25 24 25 28 30 30 33 33 33 33 36 37 38 36 32 26 22 15 13 16 13 355 327 310 300 289 283 278 278 276 278
201 207 217 226 233 239 259 287 319 330 347 356 357 358 6 10 18 20 20 20 20 21 21 23 25 26 27 29 30 30 30 29 25 18 14 9 1 352 342 336 324 307 301 302 296 284 280 282 283
207 208 215 224 227 232 248 268 298 315 335 346 345 348 354 358 5 13 14 15 15 14 14 17 18 19 20 22 25 25 22 18 16 12 6 1 353 339 328 322 323 317 307 306 302 298 291 289 287
210 211 215 218 223 230 240 259 282 304 323 334 339 343 345 350 356 1 2 5 5 3 5 6 8 7 8 8 9 9 11 10 6 2 354 351 352 346 329 310 311 315 311 308 305 298 293 290 289
213 212 213 214 222 230 234 251 269 293 309 314 326 335 340 336 342 351 357 359 357 356 357 356 358 1 360 359 358 356 353 353 354 351 347 345 344 344 333 315 303 304 305 303 304 302 292 289 290
217 216 216 219 223 231 234 247 261 277 292 303 313 325 331 327 329 340 350 354 351 348 347 346 346 349 351 351 351 353 348 344 349 350 346 340 335 332 330 322 304 299 301 299 298 296 294 293 296
218 217 218 222 227 230 233 242 251 265 284 296 307 317 320 317 323 331 337 341 344 342 341 335 340 345 343 342 344 345 346 345 346 347 341 335 328 322 321 317 307 300 299 296 293 293 293 292 291
218 218 219 221 224 229 232 238 246 257 272 287 298 306 309 311 318 325 328 331 333 335 336 339 340 343 346 341 336 338 340 343 345 345 341 333 328 321 316 308 303 297 297 296 296 294 294 292 290
218 217 219 222 225 229 234 237 242 253 263 277 288 298 304 305 308 314 320 323 323 327 329 333 338 339 343 345 340 335 334 337 340 340 336 332 326 321 318 315 304 296 297 301 300 297 294 293 293
222 222 220 223 227 233 240 242 242 252 263 272 280 291 296 299 299 304 309 310 313 317 322 329 335 334 337 344 342 340 337 333 332 332 332 328 323 318 317 311 304 300 301 302 300 299 296 294 294
Height
5919 5918 5918 5917 5916 5913 5911 5911 5909 5908 5907 5904 5903 5902 5902 5900 5900 5901 5897 5894 5893 5892 5893 5892 5892 5893 5893 5893 5893 5893 5893 5893 5892 5892 5892 5892 5892 5891 5892 5891 5891 5891 5892 5892 5892 5892 5891 5891 5891
5921 5920 5921 5919 5916 5915 5914 5913 5912 5911 5909 5907 5906 5905 5904 5902 5900 5899 5897 5895 5894 5893 5894 5894 5894 5894 5894 5894 5894 5894 5894 5894 5894 5894 5894 5894 5894 5893 5893 5893 5893 5893 5893 5893 5893 5893 5893 5893 5893
5924 5923 5923 5921 5918 5918 5917 5916 5915 5913 5911 5910 5909 5908 5906 5904 5902 5900 5898 5896 5895 5895 5895 5895 5895 5895 5895 5895 5895 5895 5895 5895 5895 5895 5895 5895 5895 5895 5895 5895 5895 5895 5895 5895 5895 5895 5895 5895 5894
5927 5926 5925 5924 5921 5920 5919 5918 5917 5916 5914 5912 5911 5910 5908 5905 5903 5902 5900 5899 5898 5898 5897 5897 5897 5897 5897 5896 5896 5896 5896 5896 5896 5896 5896 5896 5897 5897 5897 5897 5897 5897 5896 5896 5897 5897 5896 5896 5896
5929 5927 5927 5926 5924 5923 5922 5921 5920 5918 5917 5914 5913 5912 5910 5907 5905 5904 5903 5901 5900 5900 5899 5899 5899 5898 5898 5898 5898 5898 5898 5898 5898 5898 5898 5898 5898 5898 5898 5898 5898 5898 5898 5898 5898 5898 5898 5898 5898
5932 5930 5930 5928 5927 5926 5925 5924 5923 5921 5919 5917 5915 5914 5912 5910 5907 5906 5905 5903 5902 5901 5901 5900 5900 5900 5899 5899 5899 5899 5899 5899 5899 5899 5899 5899 5900 5900 5900 5900 5900 5900 5900 5900 5900 5900 5900 5900 5900
5934 5934 5932 5931 5930 5930 5929 5927 5926 5924 5921 5919 5918 5916 5914 5912 5910 5908 5906 5905 5904 5903 5902 5902 5901 5901 5900 5900 5900 5900 5900 5900 5900 5900 5900 5901 5901 5901 5901 5901 5901 5901 5901 5901 5901 5901 5901 5901 5901
5936 5937 5935 5934 5933 5932 5931 5930 5928 5926 5924 5922 5920 5918 5916 5914 5912 5910 5908 5907 5906 5905 5904 5903 5903 5902 5902 5901 5901 5901 5901 5901 5901 5901 5902 5902 5902 5902 5903 5902 5903 5903 5903 5903 5903 5903 5903 5903 5903
5939 5940 5937 5937 5936 5935 5934 5933 5931 5929 5927 5925 5923 5921 5919 5916 5914 5913 5911 5909 5908 5906 5905 5905 5904 5903 5903 5903 5902 5902 5902 5902 5902 5903 5903 5903 5903 5903 5904 5904 5904 5904 5904 5904 5904 5904 5904 5904 5904
5941 5940 5940 5940 5939 5937 5936 5935 5933 5931 5930 5928 5926 5923 5921 5919 5917 5915 5913 5911 5910 5908 5907 5906 5905 5905 5904 5904 5904 5904 5904 5904 5904 5904 5904 5904 5904 5905 5905 5905 5905 5905 5905 5905 5905 5905 5905 5905 5905
5942 5943 5942 5941 5940 5940 5939 5937 5936 5934 5933 5931 5929 5926 5923 5921 5919 5918 5916 5914 5912 5910 5909 5908 5907 5906 5906 5906 5905 5905 5905 5905 5905 5905 5905 5905 5906 5906 5906 5906 5906 5906 5906 5906 5906 5906 5906 5906 5906
5944 5944 5943 5942 5942 5942 5941 5940 5939 5937 5936 5934 5931 5929 5927 5924 5922 5920 5918 5916 5914 5912 5911 5910 5909 5908 5908 5907 5906 5906 5906 5907 5907 5907 5907 5907 5907 5907 5907 5907 5907 5907 5907 5907 5907 5907 5907 5908 5908
5946 5946 5946 5945 5944 5944 5943 5943 5942 5940 5939 5937 5934 5932 5930 5927 5925 5923 5921 5918 5917 5915 5913 5912 5911 5910 5909 5908 5907 5907 5907 5908 5908 5908 5908 5908 5908 5908 5908 5908 5908 5908 5908 5908 5908 5908 5908 5908 5908
5947 5947 5947 5947 5947 5946 5946 5946 5945 5943 5940 5939 5937 5935 5933 5930 5928 5925 5923 5921 5919 5917 5916 5914 5913 5912 5910 5909 5909 5908 5909 5909 5909 5909 5908 5909 5909 5908 5909 5909 5909 5909 5909 5908 5909 5909 5909 5909 5909
5948 5948 5948 5948 5949 5948 5949 5948 5947 5945 5943 5941 5939 5937 5935 5932 5930 5928 5926 5924 5922 5920 5918 5917 5915 5914 5912 5911 5910 5910 5910 5910 5910 5909 5909 5909 5909 5909 5909 5909 5909 5909 5909 5909 5909 5909 5909 5909 5909
5948 5949 5949 5950 5950 5950 5951 5950 5948 5946 5945 5943 5941 5939 5937 5935 5933 5931 5928 5926 5924 5922 5921 5919 5917 5916 5914 5913 5912 5911 5911 5910 5911 5910 5910 5910 5910 5909 5909 5909 5909 5909 5909 5909 5909 5909 5909 5909 5909
5948 5949 5950 5951 5951 5951 5951 5950 5949 5948 5946 5945 5943 5941 5939 5937 5935 5932 5930 5929 5927 5925 5923 5921 5920 5918 5916 5915 5914 5913 5912 5912 5911 5911 5911 5910 5910 5910 5909 5909 5909 5909 5908 5908 5908 5908 5908 5908 5908
5949 5949 5950 5950 5951 5952 5951 5951 5950 5949 5948 5946 5945 5943 5941 5939 5937 5934 5933 5931 5929 5927 5925 5923 5922 5920 5918 5917 5915 5914 5914 5913 5913 5912 5911 5911 5910 5910 5909 5909 5909 5908 5908 5908 5907 5907 5907 5907 5907
5947 5948 5949 5950 5951 5951 5951 5950 5951 5950 5949 5948 5946 5945 5943 5941 5939 5937 5935 5933 5931 5929 5927 5926 5924 5922 5920 5919 5917 5916 5915 5915 5914 5913 5912 5911 5910 5910 5909 5909 5908 5908 5907 5907 5906 5906 5906 5906 5906
5946 5947 5949 5949 5950 5950 5950 5950 5950 5950 5949 5948 5948 5946 5945 5943 5941 5939 5937 5935 5933 5931 5929 5927 5926 5924 5922 5920 5919 5918 5916 5915 5914 5913 5912 5911 5910 5909 5909 5908 5908 5907 5907 5906 5906 5905 5905 5905 5904
5944 5946 5947 5948 5949 5949 5949 5949 5949 5950 5949 5949 5948 5947 5946 5944 5942 5940 5938 5937 5935 5933 5931 5929 5927 5925 5924 5922 5920 5919 5917 5916 5915 5914 5912 5911 5910 5909 5909 5908 5907 5907 5906 5906 5905 5904 5904 5903 5903
5942 5944 5945 5946 5947 5948 5949 5949 5949 5949 5949 5948 5948 5947 5946 5945 5943 5942 5940 5938 5936 5934 5932 5930 5929 5927 5925 5923 5921 5919 5918 5916 5915 5913 5912 5911 5910 5909 5908 5907 5906 5906 5905 5904 5903 5903 5902 5901 5901
5940 5943 5944 5944 5945 5946 5947 5947 5949 5948 5948 5948 5947 5946 5946 5945 5944 5942 5941 5939 5937 5935 5933 5931 5929 5928 5926 5924 5922 5920 5918 5916 5915 5913 5912 5910 5909 5908 5907 5905 5904 5904 5903 5902 5901 5901 5900 5899 5898
5937 5940 5941 5942 5943 5944 5945 5946 5947 5947 5947 5947 5946 5945 5945 5945 5943 5942 5940 5939 5937 5935 5933 5931 5929 5928 5926 5924 5922 5920 5918 5916 5914 5913 5911 5909 5908 5906 5905 5904 5903 5902 5901 5901 5900 5899 5898 5897 5896
5933 5936 5938 5939 5940 5942 5944 5943 5945 5945 5945 5945 5945 5945 5944 5944 5943 5941 5940 5939 5937 5936 5934 5931 5929 5927 5926 5924 5922 5920 5918 5915 5914 5912 5910 5908 5907 5905 5903 5902 5901 5901 5900 5899 5898 5897 5896 5895 5894
5929 5932 5934 5936 5938 5939 5940 5941 5943 5943 5943 5943 5943 5943 5942 5942 5942 5941 5939 5938 5937 5935 5933 5931 5929 5927 5926 5924 5921 5919 5917 5914 5913 5911 5909 5907 5905 5904 5902 5900 5899 5898 5898 5897 5896 5894 5893 5892 5891
5925 5928 5931 5933 5934 5936 5937 5938 5940 5940 5940 5941 5941 5941 5941 5941 5940 5939 5938 5937 5936 5934 5933 5930 5928 5926 5924 5922 5920 5918 5916 5913 5911 5909 5907 5905 5904 5902 5900 5899 5897 5896 5895 5894 5893 5892 5891 5890 5889
5921 5924 5926 5928 5930 5931 5933 5935 5937 5938 5938 5938 5938 5939 5939 5939 5938 5937 5936 5936 5935 5933 5932 5929 5927 5925 5923 5920 5919 5917 5915 5912 5910 5908 5906 5904 5902 5900 5898 5897 5895 5894 5893 5892 5890 5889 5888 5887 5886
5916 5919 5921 5924 5926 5928 5929 5933 5934 5935 5935 5935 5936 5937 5937 5937 5936 5935 5934 5934 5933 5932 5930 5928 5926 5924 5922 5919 5917 5915 5913 5911 5908 5906 5904 5901 5899 5897 5896 5894 5893 5892 5891 5889 5888 5887 5885 5884 5883
5911 5914 5917 5920 5922 5924 5925 5930 5931 5931 5932 5932 5933 5934 5934 5934 5934 5933 5933 5932 5931 5929 5928 5926 5924 5922 5920 5918 5916 5914 5911 5909 5907 5904 5902 5899 5897 5895 5893 5892 5890 5889 5888 5887 5885 5884 5882 5880 5879